Location: Cazavet
(43.0017°N, 1.0431°E)
Time: 09:38:28
(UTC+00:00)

USA 32 - Pass Details

Date: 18 January 2026
Orbit: 774 x 780 km, 85.0° (Epoch: 9 February)

Event Time Altitude Azimuth Distance (km) Brightness Sun altitude
Rises 06:06:13 0° 198° (SSW) 3,250 7.2 -13.8°
Reaches altitude 10° 06:08:38 10° 204° (SSW) 2,327 6.4 -13.4°
Maximum altitude 06:13:41 49° 279° (W) 1,002 4.2 -12.5°
Drops below altitude 10° 06:18:46 10° 354° (N) 2,342 6.3 -11.6°
Sets 06:21:13 0° 0° (N) 3,274 7.1 -11.2°
